This demonstration page uses our WeatherBlox Daily Observations layout. Learn more.

Left ArrowRight Arrow

Hourly Observations for May 21, 2022

Temp ( °F °C ) Dew Point ( °F °C ) Humidity (%) Winds ( mph kmh ) Pressure ( in mb ) Visibility ( mi km ) Precip ( " mm )
12:15 am 00:15 Clear 81 27 70 21 70 70 SSW 7 11 29.89 1012 10 16 0.00 0.00
12:35 am 00:35 Clear 81 27 70 21 70 70 SSW 7 11 29.89 1012 10 16 0.00 0.00
12:55 am 00:55 Clear 81 27 70 21 70 70 SSW 5 7 29.89 1012 10 16 0.00 0.00
1:15 am 01:15 Clear 81 27 70 21 70 70 SSW 5 7 29.89 1012 10 16 0.00 0.00
1:35 am 01:35 Clear 79 26 70 21 74 74 Calm 29.89 1012 10 16 0.00 0.00
1:55 am 01:55 Clear 79 26 70 21 74 74 S 3 6 29.89 1012 10 16 0.00 0.00
2:15 am 02:15 Clear 79 26 70 21 74 74 S 3 6 29.90 1013 10 16 0.00 0.00
2:35 am 02:35 Clear 77 25 70 21 79 79 S 5 7 29.90 1013 10 16 0.00 0.00
2:55 am 02:55 Clear 77 25 70 21 79 79 S 6 9 29.90 1013 10 16 0.00 0.00
3:15 am 03:15 Clear 73 23 68 20 83 83 S 6 9 29.91 1013 10 16 0.00 0.00
3:35 am 03:35 Clear 73 23 68 20 83 83 SSW 5 7 29.92 1013 10 16 0.00 0.00
3:55 am 03:55 Clear 73 23 68 20 83 83 SW 5 7 29.92 1013 10 16 0.00 0.00
4:15 am 04:15 Clear 72 22 68 20 88 88 SSW 5 7 29.92 1013 10 16 0.00 0.00
4:35 am 04:35 Clear 72 22 68 20 88 88 Calm 29.93 1013 10 16 0.00 0.00
4:55 am 04:55 Clear 70 21 68 20 94 94 Calm 29.94 1014 10 16 0.00 0.00
5:15 am 05:15 Clear 70 21 68 20 94 94 N 5 7 29.96 1015 10 16 0.00 0.00
5:35 am 05:35 Clear 68 20 66 19 94 94 W 5 7 29.97 1015 10 16 0.00 0.00
5:55 am 05:55 Sunny 70 21 66 19 88 88 Calm 29.99 1016 10 16 0.00 0.00
6:15 am 06:15 Sunny 68 20 66 19 94 94 NNE 5 7 30.01 1016 10 16 0.00 0.00
6:35 am 06:35 Sunny 72 22 68 20 88 88 ESE 3 6 30.01 1016 10 16 0.00 0.00
6:55 am 06:55 Sunny 70 21 68 20 94 94 Calm 30.02 1017 10 16 0.00 0.00
7:15 am 07:15 Sunny 72 22 68 20 88 88 Calm 30.04 1017 10 16 0.00 0.00
7:35 am 07:35 Sunny 73 23 70 21 89 89 Calm 30.04 1017 10 16 0.00 0.00
7:55 am 07:55 Sunny 75 24 68 20 78 78 Calm 30.05 1017 10 16 0.00 0.00
8:15 am 08:15 Sunny 77 25 68 20 74 74 Calm 30.03 1017 10 16 0.00 0.00
8:35 am 08:35 Sunny 77 25 68 20 74 74 Calm 30.04 1017 10 16 0.00 0.00
8:55 am 08:55 Sunny 79 26 70 21 74 74 Calm 30.05 1018 10 16 0.00 0.00
9:15 am 09:15 Sunny 81 27 70 21 70 70 S 3 6 30.05 1018 10 16 0.00 0.00
9:35 am 09:35 Sunny 81 27 70 21 70 70 SSE 5 7 30.06 1018 10 16 0.00 0.00
9:55 am 09:55 Sunny 82 28 68 20 62 62 S 3 6 30.06 1018 10 16 0.00 0.00
10:15 am 10:15 Sunny 82 28 70 21 66 66 S 6 9 30.06 1018 10 16 0.00 0.00
10:35 am 10:35 Sunny 86 30 70 21 59 59 SW 5 7 30.06 1018 10 16 0.00 0.00
10:55 am 10:55 Sunny 88 31 68 20 52 52 S 3 6 30.06 1018 10 16 0.00 0.00
11:15 am 11:15 Sunny 86 30 70 21 59 59 S 7 11 30.06 1018 10 16 0.00 0.00
11:35 am 11:35 Sunny 88 31 68 20 52 52 Calm 30.06 1018 10 16 0.00 0.00
11:55 am 11:55 Sunny 88 31 68 20 52 52 SW 3 6 30.07 1018 10 16 0.00 0.00
12:15 pm 12:15 Sunny 88 31 68 20 52 52 WSW 5 7 30.07 1018 10 16 0.00 0.00
12:35 pm 12:35 Sunny 90 32 70 21 52 52 SW 6 9 30.07 1018 N/A 0.00 0.00
12:55 pm 12:55 Sunny 90 32 70 21 52 52 S 6 9 30.07 1018 10 16 0.00 0.00
1:15 pm 13:15 Sunny 90 32 68 20 49 49 SSW 6 9 30.06 1018 10 16 0.00 0.00
1:35 pm 13:35 Sunny 91 33 70 21 49 49 S 7 11 30.05 1018 10 16 0.00 0.00
1:55 pm 13:55 Sunny 91 33 70 21 49 49 S 8 13 30.05 1018 10 16 0.00 0.00
2:15 pm 14:15 Sunny 91 33 70 21 49 49 SSW 10 17 30.05 1018 10 16 0.00 0.00
2:35 pm 14:35 Sunny 91 33 68 20 46 46 SW 9 15 30.04 1017 10 16 0.00 0.00
2:55 pm 14:55 Sunny 91 33 70 21 49 49 S 10 17 30.04 1017 10 16 0.00 0.00
3:15 pm 15:15 Sunny 93 34 70 21 47 47 WSW 12 19 30.03 1017 10 16 0.00 0.00
3:35 pm 15:35 Sunny 91 33 70 21 49 49 SSW 8 13 30.02 1017 10 16 0.00 0.00
3:55 pm 15:55 Partly Cloudy 93 34 68 20 44 44 SSW 9 15 30.02 1017 10 16 0.00 0.00
4:15 pm 16:15 Sunny 93 34 64 18 39 39 SSW 9 15 30.01 1016 10 16 0.00 0.00
4:35 pm 16:35 Sunny 91 33 64 18 41 41 S 9 15 30.01 1016 10 16 0.00 0.00
4:55 pm 16:55 Sunny 91 33 68 20 46 46 S 7 11 30.01 1016 10 16 0.00 0.00
5:15 pm 17:15 Sunny 91 33 68 20 46 46 S 7 11 30.01 1016 10 16 0.00 0.00
5:35 pm 17:35 Partly Cloudy 91 33 68 20 46 46 S 7 11 30.01 1016 10 16 0.00 0.00
5:55 pm 17:55 Sunny 91 33 68 20 46 46 S 8 13 30.01 1016 10 16 0.00 0.00
6:15 pm 18:15 Sunny 91 33 68 20 46 46 S 9 15 30.00 1016 10 16 0.00 0.00
6:35 pm 18:35 Sunny 91 33 70 21 49 49 S 8 13 30.00 1016 10 16 0.00 0.00
6:55 pm 18:55 Sunny 90 32 68 20 49 49 S 9 15 30.00 1016 10 16 0.00 0.00
7:15 pm 19:15 Sunny 90 32 70 21 52 52 S 12 19 29.99 1015 10 16 0.00 0.00
7:35 pm 19:35 Sunny 88 31 68 20 52 52 SSW 9 15 29.99 1015 10 16 0.00 0.00
7:55 pm 19:55 Sunny 88 31 68 20 52 52 SSW 8 13 29.99 1015 10 16 0.00 0.00
8:15 pm 20:15 Sunny 86 30 68 20 55 55 SSW 6 9 30.00 1016 10 16 0.00 0.00
8:35 pm 20:35 Clear 84 29 68 20 58 58 SW 6 9 30.02 1017 10 16 0.00 0.00
8:55 pm 20:55 Clear 82 28 68 20 62 62 SSW 5 7 30.03 1017 10 16 0.00 0.00
9:15 pm 21:15 Clear 82 28 70 21 66 66 SW 5 7 30.04 1017 10 16 0.00 0.00
9:35 pm 21:35 Clear 82 28 70 21 66 66 S 5 7 30.03 1017 10 16 0.00 0.00
9:55 pm 21:55 Clear 82 28 70 21 66 66 S 6 9 30.03 1017 10 16 0.00 0.00
10:15 pm 22:15 Clear 81 27 70 21 70 70 SSW 7 11 30.05 1018 10 16 0.00 0.00
10:35 pm 22:35 Clear 81 27 70 21 70 70 SSW 6 9 30.07 1018 10 16 0.00 0.00
10:55 pm 22:55 Clear 81 27 70 21 70 70 S 7 11 30.07 1018 10 16 0.00 0.00
11:15 pm 23:15 Partly Cloudy 81 27 70 21 70 70 S 8 13 30.08 1019 10 16 0.00 0.00
11:35 pm 23:35 Mostly Cloudy 81 27 70 21 70 70 S 14 22 30.08 1019 10 16 0.00 0.00
11:55 pm 23:55 Mostly Cloudy 81 27 70 21 70 70 SW 7 11 30.08 1019 10 16 0.00 0.00

Powered by AerisWeather